[ hide orbit diagram ]
For accurate long-term ephemerides, please instead use our Horizons system.This orbit viewer was implemented using two-body methods, and hence should not be used for determining accurate long-term trajectories (over several years or decades) or planetary encounter circumstances.
Orbital Elements at Epoch 2459200.5 (2020-Dec-17.0) TDB
Reference: JPL 13 (heliocentric ecliptic J2000)
Element | Value | Uncertainty (1-sigma) | Units |
e | .1349836023961966 | 6.7367e-08 | |
a | 2.789264983673863 | 3.0973e-08 | au |
q | 2.412759948139997 | 1.9118e-07 | au |
i | 4.474411306750278 | 7.663e-06 | deg |
node | 8.050251239700156 | 7.0927e-05 | deg |
peri | 176.4314051487136 | 7.4508e-05 | deg |
M | 184.8880221520663 | 2.7097e-05 | deg |
tp | 2460028.149470480204 (2023-Mar-24.64947048) | 0.00013767 | TDB |
period | 1701.50444895103 4.66 | 2.8342e-05 7.76e-08 | d yr |
n | .2115774661782039 | 3.5242e-09 | deg/d |
Q | 3.165770019207729 | 3.5154e-08 | au |
|
| | Orbit Determination Parameters
Additional Information
|
[ show covariance matrix ]
Physical Parameter Table
Parameter |
Symbol |
Value |
Units |
Sigma |
Reference |
Notes |
absolute magnitude |
H |
16.8 |
|
n/a |
MPO437029 |
|
|
215080 Kaohsiung | Discovered 2009 Mar. 20 by Y.-S. Tsai and C.-S. Lin at Lulin. |
Kaohsiung, Taiwan's second-largest city, is located in southwestern Taiwan and faces the Taiwan Strait on the west. Kaohsiung is well known as a center for manufacturing, refining and heavy industries. The city will host the 2009 World Games. The name was suggested by the first discoverer. |
NOTE: some special characters may not display properly (any characters within {} are an attempt to place the proper accent above a character) |
Reference: 20090806/MPCPages.arc | Last Updated: 2011-05-09 |
|
[ show close-approach data ]
|